Theta_e
315 315 317 318 319 320 321 322 323 323 323 324 324 325 324 324 324 324 325 325 325 326 326 326 327 326 326 326 326 325 320 306 307 305 302 306 314 321 321 324 324 325 321 311 311 303 299 300 300 301 299 298 299 300 302 299 299 295 289 286 283 285 287 288 289 290 292 291 292 294 294 293 291 296 298 299 296 297 297 297 299 300 299 300 299 299 301 301
316 317 318 319 320 321 321 322 322 323 323 324 324 324 324 324 325 325 325 325 324 326 326 326 326 326 326 326 326 323 311 308 306 304 304 314 321 323 323 323 323 322 318 306 303 303 298 298 299 300 297 294 302 298 303 299 298 293 289 288 284 286 289 292 292 293 292 292 293 294 294 293 292 294 296 293 291 293 293 295 297 297 299 300 297 298 299 300
317 318 319 320 320 321 321 322 322 323 323 324 324 324 324 325 325 325 325 325 326 327 327 326 326 326 326 325 325 321 312 305 303 297 303 324 323 325 324 322 323 322 310 304 305 307 301 299 299 298 296 295 295 296 298 296 298 293 290 284 283 290 290 292 294 293 294 295 294 294 294 293 294 295 296 293 290 292 291 292 293 294 296 298 296 297 298 299
319 319 319 320 320 321 322 322 322 323 324 324 324 324 325 325 325 325 325 326 327 327 326 326 326 325 325 323 322 313 313 303 295 299 305 322 324 324 325 323 323 317 311 312 310 308 305 302 299 299 296 297 295 297 295 297 294 294 290 285 286 290 289 290 292 293 291 295 294 293 294 292 294 295 294 292 290 290 292 294 294 295 296 297 298 296 297 297
318 318 319 320 320 321 321 322 322 323 323 324 324 324 324 324 325 325 325 325 326 326 327 326 325 324 323 322 321 312 306 293 296 304 306 322 323 323 323 323 322 312 311 309 309 306 306 300 298 297 298 290 294 294 292 294 296 293 287 289 291 290 290 292 293 292 291 292 292 292 292 291 296 295 293 292 289 289 291 295 295 296 297 297 298 298 297 297
317 318 319 319 320 321 321 322 322 322 323 323 324 324 324 324 324 324 325 326 326 327 327 327 325 324 319 319 310 310 301 284 300 301 316 321 321 322 320 321 322 312 313 310 304 302 300 297 297 294 293 292 291 290 292 294 297 288 289 290 291 291 291 292 294 293 292 292 292 291 293 295 294 292 293 293 292 294 296 298 298 298 298 299 299 300 297 296
317 318 318 319 319 320 321 321 321 322 323 324 324 324 324 324 325 325 326 326 326 327 327 325 323 322 320 315 311 310 298 296 300 304 315 320 320 318 319 320 317 309 309 304 303 299 296 294 295 293 294 293 291 293 296 296 297 291 287 290 291 292 292 292 293 292 291 292 292 294 295 293 292 289 293 293 296 297 297 298 299 300 300 300 299 299 298 297
317 317 318 318 319 319 320 320 321 322 323 323 323 323 324 325 325 325 326 327 328 328 327 325 324 322 321 316 309 296 294 295 300 308 313 317 309 310 313 309 310 309 306 304 300 297 297 294 292 298 294 291 293 296 297 296 295 293 292 293 291 291 292 292 291 291 291 291 291 293 291 291 291 291 291 293 295 296 297 298 299 299 298 298 298 299 299 299
317 318 318 318 318 319 319 320 321 322 323 323 323 324 325 325 325 325 326 326 327 328 326 326 323 321 318 307 302 297 292 299 304 306 305 304 303 307 309 305 311 307 302 301 299 298 298 294 297 298 290 294 297 296 296 293 288 294 292 293 291 291 292 292 291 291 291 292 293 291 290 290 291 293 291 294 295 297 298 297 297 298 297 297 297 299 299 299
317 317 318 318 318 318 319 320 321 322 322 322 323 324 325 325 325 324 324 325 325 325 324 324 324 321 311 307 303 293 297 304 304 306 304 303 304 307 305 305 304 302 300 298 301 300 299 296 298 297 297 296 299 295 294 295 291 296 293 294 293 292 291 291 291 291 291 292 291 290 288 289 291 291 287 293 295 296 295 295 296 295 296 297 297 298 299 299
317 317 317 317 318 318 319 320 321 320 322 322 323 325 326 325 325 324 325 324 324 325 323 324 323 315 305 306 295 290 303 303 304 304 304 303 304 303 302 304 302 302 301 299 300 301 301 300 301 301 300 294 298 294 295 294 297 294 294 292 291 291 290 290 290 290 291 290 290 290 289 290 290 290 290 294 296 294 293 294 294 294 295 296 297 297 298 299
317 317 317 317 318 319 320 320 320 320 321 323 324 325 326 324 324 322 324 323 326 323 323 323 319 307 306 297 294 295 304 305 304 302 304 304 303 304 307 306 303 303 302 299 299 300 301 301 305 302 295 300 292 295 294 296 296 294 293 288 289 291 290 290 290 290 290 289 292 291 289 286 287 287 293 295 296 294 293 293 293 294 295 296 296 297 297 298
316 316 316 317 318 319 320 320 320 321 322 323 325 326 325 323 322 322 324 320 321 321 322 320 319 312 305 293 297 303 306 304 304 305 304 304 304 303 305 306 304 303 303 301 300 302 303 302 304 298 301 298 294 288 295 297 295 295 292 290 289 285 285 292 291 291 290 291 291 292 280 281 285 290 292 294 294 292 292 293 294 294 294 295 295 295 296 296
315 316 316 317 319 319 319 320 321 322 323 324 325 323 323 321 321 320 323 321 322 321 321 321 312 308 298 294 301 307 308 305 303 304 303 304 304 303 303 304 303 303 304 303 302 303 307 304 303 301 301 296 295 300 295 292 294 289 291 291 282 280 278 290 291 289 289 291 291 291 278 285 289 290 293 293 293 293 292 293 293 294 294 293 293 294 295 296
315 316 316 318 319 319 320 321 322 321 322 322 323 320 320 319 320 321 322 321 320 321 320 320 315 307 296 298 305 309 316 305 303 302 303 303 301 302 302 304 303 303 302 303 302 302 305 306 304 297 293 298 299 296 288 288 288 289 284 277 279 281 278 287 292 290 288 290 291 289 280 284 288 291 292 295 293 292 291 292 293 293 294 294 294 294 294 296
315 315 317 318 318 319 320 321 320 321 322 321 320 320 319 318 321 321 322 319 320 319 314 311 310 305 295 295 301 312 305 301 300 303 302 304 303 301 301 301 302 302 303 301 303 303 302 303 296 295 294 296 292 291 286 283 281 284 283 276 279 278 278 283 288 291 291 290 290 289 284 285 289 291 290 292 293 293 293 292 292 292 293 294 295 295 295 295
315 316 317 317 318 319 320 320 320 319 321 321 320 320 319 319 319 320 321 318 314 316 311 305 304 305 292 301 306 299 297 300 304 303 303 302 304 302 301 300 299 299 299 300 300 302 301 301 298 299 297 291 289 285 281 276 276 275 279 278 279 279 280 279 286 289 291 291 286 288 284 286 289 293 294 295 294 293 292 293 294 294 293 294 294 294 294 294
315 316 317 317 318 319 320 320 320 320 320 320 318 316 314 319 320 318 313 314 315 314 309 311 306 301 294 300 294 296 300 300 302 301 300 302 304 302 301 299 298 298 299 298 299 297 299 294 296 291 288 288 288 283 279 274 279 280 279 278 280 280 281 282 281 286 290 289 287 285 285 287 289 292 294 295 294 293 293 294 295 295 295 294 294 294 293 293
315 316 316 317 318 319 319 320 320 319 318 319 322 322 321 320 315 307 305 306 302 295 293 295 295 288 286 294 298 298 299 301 303 301 300 301 302 302 301 301 299 297 294 294 295 296 295 291 289 282 280 282 283 283 279 281 284 282 282 280 279 279 282 283 287 290 290 286 285 286 285 288 289 290 292 293 294 292 293 293 293 294 294 294 294 294 293 293
315 315 316 317 318 319 319 320 320 319 318 312 310 308 307 301 296 293 299 301 297 297 297 297 299 299 297 295 296 300 302 303 300 299 299 301 300 300 299 300 299 298 295 289 291 295 293 283 278 279 279 283 287 287 287 287 287 285 283 280 282 280 282 286 287 290 289 286 283 286 287 287 288 290 291 293 293 293 292 292 292 292 291 290 291 293 293 292
315 315 315 316 318 318 319 319 319 318 318 310 310 306 299 298 294 290 293 296 298 300 299 298 298 298 296 297 297 298 296 297 300 298 299 303 301 299 299 300 294 292 289 292 291 297 292 281 280 282 286 287 287 287 287 286 286 286 282 279 282 282 281 286 287 290 289 286 282 283 285 286 288 290 291 293 292 291 292 291 291 291 290 291 291 291 291 291
314 315 315 317 318 319 320 319 319 318 316 307 310 302 300 300 306 303 301 290 297 300 300 298 299 297 298 298 299 299 297 294 295 298 300 302 298 296 294 297 293 289 291 291 288 286 284 281 286 288 288 288 287 288 288 287 285 282 282 281 278 281 282 285 287 288 289 287 284 284 283 285 288 290 291 291 290 291 291 290 291 291 291 293 293 292 293 294
314 314 316 316 318 319 319 319 318 317 312 309 302 301 301 305 305 305 304 294 293 299 299 297 294 295 295 298 298 300 294 291 290 296 296 299 296 296 295 290 289 290 291 291 287 282 280 283 288 288 287 287 287 287 286 284 283 282 281 279 279 281 281 280 285 285 287 284 283 284 282 285 287 287 288 290 290 290 291 293 293 295 294 292 293 293 293 293
314 315 315 317 317 318 319 317 318 313 305 305 303 301 306 304 305 306 300 292 291 295 298 297 298 295 295 296 299 299 294 295 294 293 298 296 293 296 294 292 291 288 288 288 290 287 283 287 290 287 286 287 287 286 285 282 282 281 281 278 279 280 281 281 283 284 285 282 283 283 283 281 280 284 288 290 289 291 291 292 293 292 291 293 293 292 293 292
314 315 315 317 318 319 316 317 309 305 306 303 302 304 303 304 304 305 298 291 289 292 302 301 301 297 297 302 302 300 299 297 295 296 298 296 295 294 292 295 290 283 287 286 285 286 285 289 289 286 286 285 285 284 283 283 280 280 279 284 283 282 281 282 281 282 280 278 283 284 276 275 277 283 286 287 286 288 288 289 290 291 292 293 291 289 290 292
314 315 316 317 318 316 318 308 303 307 307 303 305 303 303 302 303 303 297 283 279 287 298 291 301 295 300 299 299 299 300 293 297 297 300 297 300 297 292 287 292 286 287 286 284 283 286 289 287 286 285 283 282 282 285 282 279 277 281 282 281 281 281 280 280 280 275 275 282 284 275 274 280 282 286 284 283 286 287 287 288 290 291 292 289 290 290 290
314 315 315 317 317 316 308 301 307 307 304 307 301 302 301 302 304 305 296 282 277 288 291 298 298 296 303 297 298 298 281 285 295 301 299 300 297 302 292 285 285 289 292 287 279 279 288 287 283 284 285 282 283 282 284 284 278 279 279 281 282 282 282 281 280 280 278 279 283 283 279 273 275 283 283 284 283 284 285 287 289 290 290 289 290 291 291 291
315 316 316 316 316 313 310 307 303 303 307 304 300 300 301 303 303 304 288 274 273 292 288 291 297 302 299 297 298 290 291 292 287 292 300 300 297 295 292 286 286 285 289 280 277 281 287 284 283 284 280 281 283 285 285 284 282 282 282 283 284 283 283 281 279 278 277 278 276 279 281 277 272 280 283 281 282 283 283 284 286 288 289 290 289 291 291 291
315 316 316 316 314 314 310 309 308 304 302 299 299 301 304 303 300 293 282 273 285 290 302 294 307 296 294 297 293 292 293 294 287 291 298 298 297 295 285 288 289 286 287 286 281 279 286 286 286 286 282 282 284 282 281 285 282 281 282 284 284 282 281 281 277 278 275 275 271 277 280 274 275 280 280 277 279 281 281 283 285 287 288 288 290 290 291 291
316 314 315 313 312 311 307 303 299 302 301 300 300 301 304 301 295 283 273 271 288 281 293 293 291 288 288 287 286 289 290 291 292 293 295 291 293 294 294 295 287 284 282 284 284 285 286 290 289 286 284 287 284 283 282 283 284 284 283 282 283 278 278 279 277 277 272 268 271 276 278 278 271 277 278 279 283 281 282 282 284 285 286 288 288 288 290 292
315 313 312 313 307 306 307 304 303 298 299 301 300 304 301 291 284 275 271 279 290 288 287 284 284 289 284 285 282 286 286 285 289 288 286 290 289 289 288 283 286 279 277 280 281 282 281 283 285 284 289 287 285 284 283 284 284 284 280 279 278 275 275 274 273 272 267 268 273 275 278 278 270 273 278 282 283 280 282 283 283 285 287 288 288 289 288 286
314 313 314 307 306 305 308 306 302 300 300 300 304 296 289 281 283 278 277 291 282 282 283 281 282 284 284 282 282 283 283 283 284 283 284 282 282 283 282 280 279 277 277 278 278 281 280 283 284 286 287 286 281 281 279 281 282 282 279 280 276 269 268 265 269 268 268 267 275 276 279 277 273 276 282 285 284 283 282 285 286 285 287 287 287 289 290 285
312 311 310 307 305 299 300 301 299 299 301 301 301 289 283 279 272 276 277 282 280 284 282 286 284 283 282 279 282 283 283 285 285 285 286 283 282 281 282 283 281 279 273 274 275 276 277 279 282 282 285 287 284 280 280 278 279 280 278 274 267 266 262 262 262 267 266 274 278 277 277 276 276 279 281 283 287 287 285 284 284 285 287 287 288 287 285 286
311 310 303 304 303 301 300 300 300 300 302 302 292 285 285 278 274 286 277 278 281 283 284 283 283 282 282 281 282 282 281 283 284 284 282 280 279 278 279 282 282 280 275 276 276 274 271 272 277 281 280 283 282 282 284 280 279 278 280 279 272 269 266 263 264 265 268 271 277 278 272 266 273 279 282 286 289 287 283 283 282 282 285 286 285 284 283 287
312 306 304 304 302 303 299 300 301 300 301 290 289 282 278 273 276 275 275 278 278 282 281 282 282 278 281 280 283 282 283 279 283 281 281 280 279 278 279 278 282 280 278 274 273 274 278 275 279 283 284 285 284 284 283 283 277 279 280 279 273 272 273 268 267 268 267 271 271 272 273 275 278 285 287 288 283 284 282 283 282 286 286 284 282 288 288 287
309 306 303 300 299 301 299 302 299 302 298 287 286 280 275 276 276 278 278 285 282 280 281 281 280 279 276 279 279 279 283 281 282 279 278 278 282 280 281 280 281 281 277 274 273 271 275 273 278 284 284 283 283 284 283 283 272 278 278 275 279 279 279 270 274 276 274 268 269 272 275 278 279 285 283 282 285 286 284 285 284 286 286 282 283 286 286 287
304 302 297 300 300 302 300 301 302 300 294 289 284 276 277 277 282 279 286 282 282 282 279 276 279 278 276 277 278 277 280 281 278 278 278 281 278 280 281 282 284 281 281 279 274 275 272 277 281 281 281 282 281 282 284 283 282 278 273 276 281 281 279 275 268 266 267 265 269 272 273 274 273 273 281 284 282 284 285 287 287 286 283 282 283 286 286 286
303 299 297 299 304 304 304 299 303 296 288 289 282 286 281 279 284 283 283 281 283 282 277 277 279 281 276 276 277 276 281 277 282 278 279 280 278 282 280 279 283 283 282 279 277 276 279 271 276 279 281 282 282 285 280 285 284 282 280 281 278 268 269 272 269 263 262 262 266 272 275 275 273 275 278 280 279 282 285 287 286 286 286 286 284 285 286 285
302 294 287 299 304 303 304 301 296 291 288 284 277 283 284 280 283 282 283 282 282 282 277 280 278 280 280 275 276 275 277 276 277 280 276 279 276 282 280 281 281 281 280 282 279 278 278 271 275 279 281 282 279 279 274 274 279 284 283 281 280 277 272 270 270 267 268 265 263 268 272 272 275 275 276 280 282 284 285 286 285 285 286 287 288 287 287 286
304 286 287 299 302 304 305 300 296 288 286 282 278 279 283 282 283 283 281 284 282 280 279 279 281 276 278 280 279 277 277 279 279 279 279 280 280 282 280 282 280 281 280 281 279 280 276 277 269 276 279 278 276 279 277 279 276 275 275 273 278 276 277 276 272 272 271 265 265 265 269 274 279 280 281 283 284 285 285 285 285 288 289 289 288 287 287 287
291 287 290 299 302 305 302 297 288 284 282 280 280 282 282 283 284 284 284 284 284 286 283 282 281 277 281 278 276 280 280 277 279 277 280 279 278 276 280 280 280 279 280 279 276 276 273 275 272 275 277 275 278 278 280 279 279 278 276 274 277 271 273 269 270 273 272 269 267 265 268 276 282 286 285 285 286 286 286 284 287 288 288 288 288 288 288 288
285 280 288 300 302 298 296 286 281 280 281 279 280 284 285 291 283 284 283 283 284 284 284 283 282 282 279 281 282 280 281 276 278 276 280 277 281 280 281 279 280 281 276 277 277 278 278 277 275 272 275 279 281 283 280 281 281 279 278 278 274 275 272 270 268 269 269 271 271 272 269 274 285 286 284 285 285 284 286 287 287 288 288 289 289 289 289 287
283 286 297 300 300 297 292 282 281 283 278 282 284 283 284 285 283 284 283 284 284 285 285 283 284 282 283 282 281 280 281 277 281 279 281 279 280 280 282 281 282 281 280 275 277 280 286 272 270 275 278 279 280 280 279 278 281 280 278 277 277 275 276 274 274 272 271 273 272 269 267 275 284 285 282 283 284 285 286 286 286 287 287 287 286 286 286 286
284 288 291 299 298 295 288 281 280 278 280 284 282 282 285 284 282 282 283 283 283 281 282 283 283 284 283 283 280 282 282 275 281 279 277 279 280 283 282 281 282 279 278 277 276 280 273 274 276 268 269 275 278 275 279 278 280 279 277 279 278 278 275 272 273 269 271 274 275 269 267 272 283 285 285 282 281 281 282 285 286 284 284 284 285 285 285 285
286 284 287 292 298 294 284 280 282 280 279 280 280 281 282 282 283 284 284 283 284 281 282 282 283 283 282 283 282 282 282 281 278 279 278 277 279 280 279 279 277 279 281 281 285 280 276 275 273 268 267 267 268 269 272 276 277 279 280 280 279 274 274 273 271 268 268 272 275 267 269 279 284 283 279 280 279 279 282 283 285 285 283 283 283 284 284 284
283 284 285 285 290 287 284 282 281 282 280 275 278 282 280 280 283 284 284 284 283 284 283 285 283 282 282 281 280 280 281 283 282 276 275 276 275 280 279 277 279 279 283 283 281 280 274 275 276 272 270 270 274 277 280 280 278 276 278 279 279 280 274 274 273 270 270 274 271 275 277 277 279 275 277 276 279 278 279 281 284 284 283 283 283 283 283 283
283 284 282 283 284 285 280 281 282 280 282 280 279 279 278 281 282 283 285 282 284 283 285 284 284 282 280 279 279 280 280 280 280 280 275 274 273 278 280 278 280 281 284 281 280 275 274 271 275 278 277 278 279 279 281 280 278 279 278 278 279 279 275 272 271 273 279 273 271 278 279 277 273 275 275 277 277 278 279 280 282 284 283 282 282 282 283 282
284 284 283 287 285 283 280 283 281 283 282 279 279 282 281 279 278 277 283 284 284 282 284 284 282 282 282 282 281 276 280 279 278 276 274 274 274 277 279 281 279 283 281 279 277 277 273 271 270 272 273 278 279 279 280 280 279 279 278 278 277 279 278 275 276 278 278 272 272 276 276 273 274 276 277 278 278 278 279 279 281 284 283 283 282 281 281 281
283 283 284 286 283 281 282 285 284 283 283 279 281 282 280 278 279 281 280 281 283 283 284 277 281 281 281 281 282 277 279 273 274 274 275 274 274 277 273 276 281 279 279 279 278 274 273 271 270 270 276 278 278 278 279 278 278 277 277 279 279 278 277 277 278 278 277 275 275 274 274 274 275 276 277 278 280 279 280 281 281 281 281 282 281 280 280 281
285 282 285 282 281 278 280 280 285 281 284 283 279 283 282 281 281 281 282 282 277 281 282 281 280 281 281 281 283 278 281 281 279 275 274 275 278 275 272 276 276 276 279 277 276 276 276 272 277 272 273 277 279 278 274 276 276 277 279 279 278 278 278 277 275 275 275 274 274 274 273 272 276 278 278 279 280 280 279 279 279 280 281 281 280 280 280 281
285 281 287 287 282 281 280 279 281 279 277 280 279 284 284 282 282 282 283 284 283 282 282 280 280 281 280 282 282 282 282 281 281 281 281 279 277 278 276 275 279 276 275 275 275 273 272 271 271 269 273 275 279 278 277 277 278 277 275 276 276 276 274 274 271 274 272 271 272 272 270 271 275 278 278 278 279 278 277 278 279 279 280 280 279 280 280 280
283 285 283 284 282 284 281 278 279 278 279 281 283 283 283 283 283 284 282 284 281 284 283 283 280 282 279 279 279 282 282 281 281 281 280 281 281 280 279 279 278 276 274 273 272 274 271 270 271 269 272 274 279 279 277 278 277 269 271 275 276 277 278 277 276 276 275 274 270 268 270 275 276 277 276 276 278 278 278 279 278 279 280 280 280 279 280 280
Wind_Speed
7 7 8 8 9 9 9 9 9 9 9 9 9 9 9 10 10 11 11 11 11 11 11 11 10 10 10 12 6 6 7 2 3 3 7 3 4 9 12 10 10 10 10 5 5 6 7 8 9 8 4 2 2 0 1 2 0 2 0 2 4 5 2 1 2 1 1 1 3 4 5 5 2 1 2 0 3 1 3 4 5 4 5 4 3 4 8 11
7 8 8 8 9 9 9 9 9 9 9 9 9 10 10 10 10 11 11 11 11 11 10 9 9 8 10 9 5 4 4 1 0 4 2 3 6 9 9 9 8 7 7 1 5 4 5 8 8 8 6 3 1 0 1 1 2 1 1 1 6 2 2 1 1 1 2 3 4 4 4 5 6 7 2 3 3 3 5 7 3 6 8 6 3 6 10 11
7 8 8 9 9 9 9 9 9 9 9 10 10 10 10 10 10 11 11 11 11 11 9 8 8 8 8 6 4 4 4 2 0 3 2 5 7 7 7 7 6 5 1 1 2 2 2 4 6 4 4 2 2 2 0 1 1 2 2 4 4 2 2 1 1 2 0 1 4 3 4 4 3 5 0 4 5 3 11 9 5 8 11 10 4 5 8 10
8 8 8 9 9 9 9 10 10 10 10 10 10 10 10 10 10 10 10 11 11 9 8 7 6 6 5 5 5 2 1 1 1 2 2 3 4 3 4 4 4 2 1 2 3 3 4 5 6 2 2 1 3 1 1 1 1 1 1 3 2 1 3 1 1 2 4 1 1 3 1 4 3 4 5 3 3 9 10 9 12 14 15 9 5 6 8 10
8 8 8 9 9 9 9 10 10 11 10 11 11 11 10 10 10 10 10 11 10 8 6 5 5 4 3 4 2 1 2 3 1 1 4 7 7 6 4 4 3 1 1 2 5 4 2 4 3 1 0 3 3 2 0 1 1 1 4 2 1 1 1 1 1 3 2 6 1 1 4 5 1 1 5 5 8 11 8 8 10 12 11 10 10 9 9 11
8 8 9 9 9 10 10 10 11 11 11 11 11 11 11 11 10 10 10 9 8 7 5 3 4 2 2 5 2 2 2 1 1 3 9 9 8 7 6 5 5 1 3 4 1 6 6 4 1 1 1 1 1 1 2 0 1 3 3 1 1 1 2 1 0 3 2 2 2 2 3 2 3 4 4 7 14 8 5 5 10 13 12 11 10 10 10 13
8 8 9 9 10 10 11 11 11 11 11 11 11 11 11 10 10 9 9 8 7 6 4 2 1 2 2 3 1 2 2 1 1 7 9 9 9 9 9 7 3 3 3 4 4 1 1 3 1 3 1 1 3 0 0 1 0 2 4 1 1 1 2 1 0 3 2 2 2 2 1 1 0 5 2 8 12 10 9 6 6 7 7 6 7 8 12 14
8 9 9 9 10 11 11 11 11 11 11 11 11 11 11 9 8 8 8 7 6 6 5 4 4 4 4 1 1 1 3 1 6 6 10 9 9 10 8 4 0 1 3 3 4 5 3 5 3 1 1 3 1 0 2 3 2 2 3 1 2 1 2 1 1 2 3 5 5 1 2 6 4 4 4 16 13 11 12 9 10 11 10 8 7 8 8 9
8 9 9 10 10 11 11 12 11 11 10 11 11 11 10 8 8 8 7 6 5 5 5 5 3 3 3 0 0 1 1 3 5 8 9 9 9 8 7 3 1 3 4 4 4 3 1 3 4 0 3 0 0 1 1 2 4 0 3 1 3 3 1 1 2 4 4 3 1 2 7 7 6 5 10 22 19 15 12 8 11 11 12 13 12 12 10 9
8 8 9 10 10 11 11 11 11 11 11 11 11 11 9 7 7 6 4 4 4 4 2 3 4 4 1 1 1 1 2 5 6 7 8 8 8 8 7 4 4 4 4 3 5 5 2 2 0 3 4 1 1 0 0 1 2 1 2 1 3 4 3 3 4 3 5 3 1 2 6 5 2 3 9 7 12 7 7 12 11 9 12 15 12 11 11 12
8 8 9 9 10 10 11 11 11 11 10 11 10 10 9 5 4 4 3 3 2 3 3 4 4 1 2 1 4 1 4 4 2 5 8 6 9 6 4 6 4 3 3 2 3 1 0 2 2 2 2 1 1 2 0 2 0 3 1 4 5 7 4 4 4 5 1 3 3 4 7 6 4 1 14 19 15 4 5 9 10 10 12 13 13 12 11 11
7 7 8 8 8 10 10 10 10 10 10 9 9 8 8 5 3 3 4 5 4 1 3 5 5 1 1 5 7 1 5 4 4 4 6 4 6 6 5 3 3 2 3 1 2 2 1 3 2 2 1 0 1 0 1 2 1 1 1 4 6 5 4 5 7 4 3 3 1 2 6 6 4 8 19 18 17 5 6 8 9 11 13 13 12 11 9 12
7 7 6 7 8 9 10 10 10 9 9 8 7 7 7 4 3 4 5 5 3 4 3 4 3 2 1 5 2 7 4 3 4 7 5 3 4 4 3 1 2 3 4 2 2 3 3 1 4 3 0 2 1 1 1 1 1 2 1 2 7 7 6 10 3 1 4 3 3 3 7 8 8 15 14 13 9 6 6 11 12 9 9 10 10 10 11 10
6 6 6 7 8 9 9 9 9 9 8 6 5 4 4 4 1 3 5 5 7 5 3 0 1 1 4 0 5 4 4 1 5 4 4 4 7 8 5 6 4 1 1 2 2 1 2 4 5 3 1 3 1 1 1 2 2 0 3 1 1 4 4 5 3 3 2 2 4 2 3 12 12 8 11 9 9 8 9 12 11 10 9 7 7 8 10 11
6 6 7 7 8 9 10 10 9 9 8 7 5 2 2 2 4 4 5 5 5 4 6 5 2 2 2 0 3 5 3 0 3 4 3 5 3 6 7 9 10 2 1 1 0 3 0 1 2 2 1 0 1 1 3 2 2 1 4 3 5 0 7 9 3 5 4 1 3 3 6 12 15 14 6 11 6 2 7 9 10 9 9 10 8 8 9 10
6 7 7 8 8 9 9 9 9 8 6 5 4 4 3 6 7 7 7 7 6 4 1 2 1 2 5 1 1 0 1 2 4 5 3 2 0 2 5 6 7 4 1 2 1 1 2 4 3 1 1 3 4 3 3 4 3 3 2 5 5 3 6 11 2 1 2 1 1 5 9 8 15 6 4 3 8 11 12 13 11 11 12 11 10 10 9 9
6 7 8 8 8 8 9 9 9 8 7 5 7 6 7 6 7 5 5 5 5 1 1 1 4 3 2 3 1 2 3 2 3 3 7 3 1 2 4 5 3 5 4 5 3 3 2 2 1 1 3 4 1 1 2 6 6 3 4 1 2 3 6 7 8 2 2 0 3 3 4 11 16 22 21 16 7 9 10 16 16 13 10 11 10 10 9 9
7 7 8 8 8 8 7 7 6 5 6 7 5 6 6 10 9 5 5 4 2 1 1 0 2 3 1 4 2 5 4 3 6 6 4 4 1 3 1 1 3 5 6 5 2 0 2 1 2 1 3 6 8 8 8 3 2 4 5 6 8 5 4 7 5 4 2 1 3 5 7 16 17 19 21 19 8 10 13 14 15 15 13 11 9 8 7 7
6 7 7 8 8 7 6 6 6 8 11 10 7 6 6 6 3 2 5 5 4 4 3 5 6 3 0 5 6 6 5 4 4 3 7 8 3 2 2 2 2 2 3 5 3 2 2 2 4 6 5 7 5 5 2 1 1 4 4 4 5 6 9 10 7 5 2 4 5 7 11 16 18 19 21 21 13 10 15 13 11 11 11 9 8 9 7 7
6 6 7 7 7 7 8 7 7 9 11 6 4 2 2 3 3 3 7 7 5 3 3 1 1 1 1 5 5 5 6 3 0 3 5 6 5 5 4 1 2 2 1 1 5 1 2 7 3 1 3 3 3 0 1 2 2 2 1 1 8 6 8 6 5 3 2 4 5 8 10 12 18 19 20 20 16 14 12 10 10 9 6 5 6 9 10 7
4 6 7 7 7 7 7 8 8 8 6 1 0 2 0 1 1 2 2 2 1 1 0 0 1 2 0 2 3 5 4 3 0 6 7 7 1 2 2 4 3 2 1 3 2 2 4 4 4 3 2 2 3 2 1 3 0 0 4 4 9 7 8 6 6 3 4 6 8 6 12 12 17 17 18 17 13 13 11 8 8 8 5 6 6 6 4 4
5 5 6 6 7 7 7 7 7 7 2 1 2 3 1 2 0 0 1 1 2 2 4 3 1 2 3 2 2 2 2 3 7 9 7 11 6 3 4 3 2 1 3 5 5 8 6 4 1 1 1 1 3 3 2 1 4 3 2 5 4 7 6 10 2 2 5 9 13 9 11 14 19 17 15 13 10 9 7 4 6 4 3 5 6 5 6 7
4 5 5 6 6 6 6 7 7 5 2 2 2 3 1 1 3 3 1 3 2 1 2 2 5 2 4 3 2 3 4 6 3 8 8 7 7 4 2 5 6 3 4 6 6 5 6 2 3 1 2 3 2 1 5 6 3 3 7 6 7 6 8 11 1 6 12 1 7 10 10 13 12 8 6 7 8 6 5 4 2 1 2 4 5 5 7 7
3 4 4 5 5 5 6 7 7 2 3 6 5 3 1 2 3 2 2 1 1 3 1 1 0 1 3 3 3 4 2 1 1 9 4 5 4 4 2 3 5 5 8 5 2 4 1 2 1 2 2 2 5 5 5 6 8 5 2 2 5 6 4 3 12 11 6 6 1 7 11 7 5 9 11 10 8 9 10 12 13 12 4 2 2 7 7 8
3 4 4 4 5 5 6 7 4 0 2 4 1 1 3 2 1 0 1 2 4 2 2 0 2 1 2 2 3 1 1 0 1 3 1 4 7 4 1 1 2 4 5 4 5 7 3 1 1 3 3 4 4 7 4 4 8 8 3 2 4 5 7 8 7 13 10 6 2 10 7 7 4 9 8 8 9 9 6 11 11 12 9 10 10 5 5 5
4 5 5 5 6 6 5 2 0 0 2 1 1 2 4 4 1 2 2 2 2 3 3 4 0 2 2 3 2 1 0 2 1 2 2 1 3 1 1 5 1 6 6 5 1 1 1 2 2 1 2 4 5 3 1 3 5 5 7 2 4 5 6 6 8 7 7 6 8 4 3 9 7 5 11 5 6 9 7 7 6 9 10 8 5 4 5 5
4 4 4 4 4 3 1 1 1 1 0 1 1 4 4 4 3 1 2 2 5 2 2 2 2 2 1 4 4 2 4 4 5 2 4 3 4 1 3 4 5 1 1 0 4 3 2 4 6 5 5 6 6 8 3 3 5 5 3 3 6 8 11 7 3 1 6 3 9 1 5 2 10 10 5 7 5 6 7 9 9 8 9 2 1 0 2 2
3 3 3 4 5 1 1 0 1 0 0 0 2 3 5 4 2 1 3 3 3 3 3 4 1 2 4 7 8 5 2 4 3 4 4 4 2 3 7 4 4 4 3 5 6 4 3 5 5 7 5 5 5 1 4 1 1 6 6 3 11 7 10 5 1 3 3 2 8 7 2 1 4 9 10 5 5 8 6 5 4 1 5 6 3 2 2 3
3 3 3 3 4 4 1 2 1 0 1 3 4 4 3 3 2 3 3 4 2 2 3 0 2 3 8 8 7 4 1 3 2 3 5 3 13 2 5 4 1 1 1 3 2 3 2 1 0 2 2 4 4 4 3 1 3 5 4 6 7 1 2 2 1 0 3 1 6 5 1 0 10 10 8 3 2 5 5 8 6 3 2 4 5 4 4 3
1 1 2 2 1 1 2 3 5 1 1 2 4 4 2 2 2 2 4 4 1 3 2 3 4 6 4 5 3 9 6 4 1 4 5 4 12 9 2 1 3 2 6 6 4 4 2 3 5 3 0 1 3 5 3 2 5 5 6 4 9 5 4 2 2 1 2 1 5 4 2 3 4 10 7 4 4 2 6 7 6 6 4 4 4 4 4 4
3 1 1 3 2 1 0 1 1 1 2 2 3 1 2 4 2 5 5 1 1 2 4 4 3 5 6 9 8 6 2 3 6 4 5 6 14 7 5 2 5 4 5 7 9 11 3 2 1 1 1 3 1 6 2 1 0 4 4 4 7 5 6 1 4 3 3 7 6 2 1 1 4 8 8 6 7 3 6 6 5 6 6 6 4 5 5 4
11 13 11 9 0 1 3 1 2 1 1 2 1 3 2 0 8 9 1 5 1 5 2 5 2 2 7 2 5 8 5 7 4 5 5 4 9 17 14 10 8 10 11 10 9 8 4 2 2 5 2 3 2 2 6 4 4 9 5 7 9 5 7 7 7 9 3 4 9 6 4 9 5 10 9 13 10 7 5 8 5 5 7 6 6 6 7 4
14 14 16 7 1 4 1 2 2 2 0 1 2 3 5 8 5 4 1 5 0 1 4 1 5 6 5 4 8 6 2 7 6 5 2 3 8 4 5 9 6 4 3 3 4 8 7 4 4 5 3 0 1 8 10 8 7 9 5 2 5 5 4 4 5 2 5 10 11 5 2 5 6 8 7 8 13 10 7 8 5 5 8 8 7 6 4 2
6 8 9 1 6 3 1 2 2 0 0 2 4 8 10 12 1 1 0 2 3 2 3 3 7 5 4 5 4 5 8 1 6 4 5 2 7 5 7 6 6 7 1 2 7 3 7 7 3 5 3 1 2 1 0 5 5 6 3 0 2 3 0 3 2 4 8 10 16 9 4 3 6 8 5 10 15 12 7 5 4 6 9 10 7 6 2 1
9 11 7 0 2 0 2 2 1 1 1 8 13 8 11 1 0 1 3 3 3 3 3 3 3 4 6 4 2 4 1 2 3 3 7 6 6 2 5 7 7 2 1 2 1 1 1 5 10 2 4 1 2 1 1 1 1 3 2 5 4 2 5 4 7 3 5 8 9 6 4 2 7 9 13 12 7 8 5 7 7 11 9 8 6 1 2 5
6 0 2 3 2 1 2 2 2 1 4 10 13 12 7 0 0 0 0 1 1 2 8 7 6 7 3 7 2 6 6 2 6 3 2 3 1 3 1 1 4 4 4 3 2 3 3 2 3 9 3 2 2 1 1 1 2 4 4 1 1 3 3 2 5 4 1 2 8 3 10 3 4 14 8 6 10 11 7 9 9 9 8 7 3 4 6 6
2 1 6 3 3 3 2 2 2 2 10 12 13 5 2 0 1 1 2 1 2 1 2 6 6 4 5 5 4 8 6 2 3 3 4 1 3 4 2 1 3 2 1 2 5 2 0 10 9 1 5 2 2 3 1 2 1 1 2 4 5 2 3 3 4 3 1 2 7 5 13 12 5 9 5 12 10 12 11 14 14 10 7 6 6 7 6 6
1 2 2 4 3 4 1 2 1 6 7 17 11 7 0 2 1 2 0 2 1 1 4 3 1 6 2 1 6 5 8 6 10 4 1 3 0 0 3 3 3 2 1 1 1 3 1 6 7 2 4 7 1 0 3 2 1 3 4 1 3 3 5 3 2 3 4 5 6 11 17 12 6 11 5 9 7 11 15 16 14 12 10 11 8 9 9 8
1 3 3 4 4 5 0 3 9 9 12 14 1 8 1 1 0 0 4 4 1 0 3 1 1 2 1 2 2 1 3 4 4 3 3 2 3 1 2 1 2 3 4 1 0 3 2 1 8 3 1 8 4 3 4 4 2 1 2 3 1 2 6 1 4 2 2 7 3 10 13 10 4 6 3 8 8 13 15 13 11 10 10 13 14 12 10 8
1 3 4 2 7 6 4 2 12 9 11 11 1 3 1 1 1 1 2 1 0 2 0 1 1 1 3 0 1 3 3 2 1 3 3 2 1 1 1 4 1 8 3 1 1 0 3 1 3 8 5 4 5 1 4 3 6 5 2 2 1 2 4 1 1 3 4 4 5 4 12 11 8 2 4 11 14 14 14 14 12 15 17 17 16 13 11 11
1 6 1 5 12 5 3 17 14 11 8 1 4 3 1 0 1 1 2 2 0 2 0 1 0 2 1 4 4 0 2 2 1 1 0 2 2 4 2 0 2 4 4 1 2 1 1 2 4 7 10 5 8 5 4 3 3 3 3 5 6 5 8 6 11 0 0 2 3 2 13 16 15 9 9 10 12 13 12 10 17 18 18 18 16 15 15 14
3 3 3 8 11 6 13 10 6 2 7 5 2 0 0 1 1 1 1 0 1 0 2 2 1 1 2 0 0 2 2 2 1 2 0 2 1 1 1 5 2 1 1 0 1 1 1 2 1 6 6 10 14 12 1 2 2 4 4 6 3 2 2 2 8 7 4 4 1 7 7 20 15 8 6 8 8 9 15 19 22 22 21 21 22 23 23 19
6 3 2 7 6 10 16 9 4 7 5 1 1 2 1 1 1 2 2 2 0 0 1 3 1 1 1 0 1 1 1 1 0 1 1 0 3 4 3 2 2 2 2 3 1 0 3 1 2 7 7 10 13 6 1 1 1 3 3 3 0 4 4 6 8 5 4 8 7 5 4 14 14 6 3 6 20 27 26 27 29 28 29 30 31 31 31 32
3 4 4 7 5 8 12 6 4 2 3 1 2 1 1 1 1 3 1 1 1 3 1 0 2 1 1 1 1 1 1 1 2 1 3 1 2 2 2 2 2 1 1 1 1 2 1 2 2 6 7 11 12 3 1 2 1 2 6 9 6 4 1 4 1 0 3 10 15 8 12 11 11 6 18 29 27 25 26 26 25 22 21 22 24 24 24 26
3 1 4 7 12 12 6 4 9 7 1 3 2 4 1 2 1 1 1 1 0 1 1 0 1 1 1 1 1 1 2 1 2 1 0 1 3 1 4 3 3 2 1 2 1 2 1 4 1 2 5 9 12 13 16 16 12 8 6 9 8 7 8 3 6 1 4 8 10 4 9 11 13 19 24 25 25 24 24 23 21 19 21 22 20 20 22 22
3 5 6 8 9 9 7 2 6 7 7 3 5 1 2 2 1 2 4 1 1 1 1 0 1 1 1 3 2 1 1 1 1 3 2 2 3 2 5 5 4 3 2 3 1 1 1 2 3 6 6 7 10 11 8 0 6 9 18 20 21 13 4 5 1 3 9 11 9 13 14 18 10 21 22 25 20 23 23 23 18 17 18 19 21 20 18 17
2 6 1 1 3 9 4 6 3 3 2 3 4 0 5 0 1 1 6 0 1 0 0 1 1 2 3 4 3 2 2 4 3 0 1 4 3 3 2 6 3 4 3 1 3 1 0 3 7 10 10 13 13 14 13 3 10 14 15 19 20 17 7 2 5 13 15 10 14 11 14 11 14 19 23 19 22 19 20 20 20 15 13 17 16 18 20 21
6 1 2 1 5 0 6 6 5 5 3 5 1 1 0 0 2 1 2 1 1 1 0 0 5 4 3 1 1 2 7 5 1 2 4 1 4 7 7 1 1 3 4 0 1 0 0 3 7 6 11 11 14 15 13 11 11 12 14 17 19 17 15 15 14 18 12 6 13 17 19 14 15 19 19 20 18 18 18 19 18 15 15 18 21 21 21 21
5 2 2 1 4 1 1 1 2 6 6 3 2 2 1 1 0 1 0 4 3 3 4 2 5 7 5 3 1 1 1 5 5 2 1 5 2 6 5 3 1 3 1 0 1 2 1 5 6 6 9 10 13 12 12 13 9 9 13 17 15 12 13 14 16 13 12 7 13 12 13 12 14 19 19 20 16 17 16 16 19 22 22 19 19 21 21 21
2 3 1 5 6 4 0 0 1 5 6 2 3 0 1 0 0 3 2 3 3 3 3 3 6 8 6 2 0 0 1 1 3 5 1 3 9 3 3 5 4 1 1 1 0 1 2 8 5 5 7 16 14 7 4 4 1 10 20 17 14 10 11 13 10 14 12 12 17 15 13 14 13 16 18 20 18 16 21 23 20 22 21 20 18 20 22 22
1 2 6 9 6 3 1 2 2 3 3 7 5 1 2 2 2 0 1 0 2 1 2 3 4 7 2 2 1 2 3 3 4 10 8 2 6 4 1 3 3 4 5 2 1 2 1 6 3 3 9 15 14 11 8 7 8 9 10 16 17 18 16 10 9 7 14 13 15 18 16 16 17 19 20 21 20 20 22 23 21 21 21 18 19 21 22 22
3 1 6 6 6 1 3 3 3 4 5 1 1 2 2 2 0 0 0 1 2 1 1 0 2 1 4 4 3 4 4 4 8 8 6 7 6 8 5 5 3 1 5 2 0 1 2 1 4 4 8 13 19 14 17 17 12 5 13 13 13 16 16 6 5 8 10 6 14 13 11 12 14 16 17 15 17 20 19 19 24 24 20 16 19 21 21 20
Wind_Direction
315 312 312 310 309 310 311 313 313 315 315 311 307 307 307 307 306 309 309 309 307 304 304 300 303 304 297 296 345 9 351 48 345 27 46 232 220 276 288 290 291 299 312 329 336 21 345 346 346 340 329 47 267 151 238 46 126 64 102 137 279 227 296 245 246 243 250 158 230 200 191 139 207 210 224 29 295 172 273 270 288 302 260 238 177 158 133 136
301 301 301 304 305 307 308 310 311 308 306 305 306 306 307 307 307 303 304 302 303 296 297 301 299 293 288 292 7 357 27 33 171 59 121 234 251 278 283 286 290 304 317 15 20 349 4 334 331 345 349 346 318 136 49 286 77 122 229 123 237 226 238 149 239 310 18 293 213 219 203 169 218 154 230 176 272 233 263 255 237 275 278 291 126 141 136 143
294 297 299 301 303 306 307 306 304 303 303 304 306 306 305 305 301 301 298 295 294 294 297 295 281 274 278 303 8 359 27 346 205 358 290 229 270 262 262 271 276 311 51 306 273 326 274 278 291 342 312 313 297 211 114 252 58 250 145 260 246 226 249 22 51 299 165 279 208 213 233 185 232 169 99 203 233 231 228 234 248 243 250 246 206 162 158 157
297 298 300 301 304 303 302 301 301 302 303 305 306 305 302 296 296 295 294 291 288 292 292 284 282 284 290 323 29 3 94 52 21 277 280 282 311 263 247 266 279 330 27 201 249 298 295 308 288 293 296 316 282 30 79 264 87 294 85 199 235 264 4 298 56 342 306 73 285 215 223 195 245 208 151 216 231 244 242 223 205 222 231 233 211 190 172 176
297 297 299 299 300 300 298 301 304 304 306 309 307 303 300 298 297 294 293 287 285 288 289 288 296 303 318 8 16 55 78 41 282 260 290 327 330 325 312 297 285 348 34 266 322 274 264 257 280 323 173 274 333 17 237 320 152 100 209 205 211 354 323 267 114 331 323 296 284 186 145 224 242 242 201 164 205 240 210 231 216 230 227 217 222 201 190 187
296 296 297 300 300 302 305 306 305 306 310 310 307 305 301 297 294 290 283 280 282 287 284 282 295 290 169 131 61 59 76 71 266 327 311 323 324 325 300 294 304 5 13 359 349 305 330 307 228 307 322 120 259 169 273 306 140 282 307 248 177 173 220 269 64 305 11 331 343 126 222 277 185 248 235 198 219 243 193 194 212 219 222 219 212 210 193 198
295 298 301 304 307 311 312 310 307 309 311 306 303 299 294 290 285 280 279 280 287 287 282 299 338 62 353 45 70 85 132 223 2 288 320 322 326 325 309 310 17 12 34 0 328 6 311 305 193 230 221 275 299 123 246 310 12 153 243 291 307 288 239 180 209 253 294 280 266 210 321 244 251 268 248 243 246 244 239 232 215 210 214 214 215 218 213 203
300 304 309 312 317 316 313 309 308 309 308 306 301 295 289 291 292 286 283 283 284 290 312 347 20 45 36 16 50 352 44 294 284 278 310 330 331 322 335 329 352 11 352 259 268 311 351 319 291 244 341 208 236 121 316 2 13 174 273 287 259 253 227 193 210 241 247 265 247 351 314 250 225 234 319 266 254 246 243 226 237 240 243 242 228 230 222 216
309 313 317 321 321 317 311 309 307 308 309 304 299 294 295 310 302 291 289 290 295 305 344 44 81 119 119 108 139 30 330 257 264 292 320 333 322 335 18 357 6 322 283 280 262 256 55 273 357 225 245 58 290 95 323 75 310 213 226 274 306 292 271 206 277 240 221 245 234 314 259 267 256 285 268 260 267 243 241 233 232 233 239 241 236 230 230 235
318 320 324 327 323 317 310 306 309 310 306 301 296 295 296 296 287 289 279 297 315 356 32 124 123 145 99 91 33 70 267 265 285 307 314 334 327 353 1 320 349 329 7 306 47 45 74 272 207 298 129 95 88 222 173 123 229 196 285 259 275 263 301 269 214 251 223 216 207 234 282 279 297 86 278 268 236 263 232 239 238 223 233 236 232 232 232 230
324 327 331 331 325 314 308 308 308 305 297 293 290 287 284 295 311 328 317 287 314 48 80 122 130 117 352 69 89 114 243 350 274 309 322 344 346 351 331 327 340 12 3 9 73 109 205 259 311 327 49 237 58 310 52 225 359 328 246 335 307 284 269 263 248 255 280 304 216 202 267 275 265 191 244 260 270 184 224 243 240 228 234 235 232 229 230 227
332 337 336 330 321 312 308 306 302 295 285 282 280 279 287 304 329 319 311 308 303 360 82 122 149 112 68 69 78 207 267 243 300 313 318 353 336 285 272 296 42 29 33 45 344 321 323 288 38 66 242 37 298 311 309 271 30 270 33 346 299 337 311 247 228 229 142 260 140 158 282 285 213 225 239 246 263 250 246 252 245 236 233 235 235 233 230 228
336 337 332 324 319 311 304 301 294 290 283 279 278 278 285 321 335 333 324 328 294 328 88 128 151 118 82 34 255 239 255 286 334 322 315 5 325 321 269 41 76 62 77 67 327 314 307 360 103 68 294 97 187 112 245 73 284 3 10 180 329 359 326 274 188 179 148 248 152 70 325 264 244 233 254 265 266 268 247 254 252 243 238 238 236 234 236 236
338 332 328 323 316 313 308 303 298 289 282 281 282 291 289 325 322 269 274 278 287 288 321 24 137 77 82 210 256 245 255 39 339 357 317 330 20 326 335 343 352 8 41 66 308 316 40 58 92 139 89 77 303 288 33 332 38 146 266 93 264 3 280 299 188 170 163 208 162 82 221 290 279 245 268 272 259 247 243 247 250 247 246 241 239 236 234 235
330 332 330 331 328 320 313 304 296 311 310 310 298 326 318 242 251 222 236 272 266 294 340 343 111 88 49 262 267 288 14 66 330 302 278 6 12 336 341 329 323 286 243 121 199 287 241 45 52 36 16 282 30 27 339 10 337 326 33 305 329 105 275 311 284 150 193 306 123 107 264 252 276 291 264 275 317 277 253 264 259 251 244 243 239 235 234 234
334 337 337 337 326 317 309 311 324 320 312 313 319 287 269 240 213 217 218 207 252 302 341 28 309 129 113 34 303 316 37 27 317 292 303 31 31 274 282 301 298 331 310 265 227 318 16 90 75 178 76 3 39 339 354 17 339 359 74 288 298 318 278 340 318 253 228 71 280 166 253 311 297 276 269 305 337 315 295 278 265 249 243 240 238 235 234 240
341 342 338 334 329 325 322 331 328 341 355 350 334 331 329 317 310 310 284 292 306 289 94 352 327 89 72 249 14 27 320 287 301 344 337 304 204 242 348 342 342 345 329 313 313 21 317 50 302 30 47 71 306 72 19 21 340 317 30 319 265 312 337 321 301 342 355 99 279 281 253 253 266 295 297 298 296 281 265 269 268 259 248 238 236 236 235 232
346 342 340 335 332 326 323 324 321 338 352 347 360 317 325 323 324 309 337 309 328 338 259 153 103 25 340 17 9 306 290 319 336 307 313 280 247 329 334 330 292 343 341 353 3 59 310 353 42 186 22 12 20 26 68 329 265 295 330 346 328 320 291 253 323 285 4 358 265 292 272 275 282 291 296 297 302 283 273 264 267 265 256 248 242 244 239 230
347 339 334 331 327 323 321 312 319 357 354 325 296 296 287 307 335 47 49 351 41 357 23 328 26 90 268 293 287 303 312 265 314 30 329 350 326 295 284 227 254 335 354 39 293 43 342 39 20 40 360 346 6 78 121 216 231 258 256 268 278 316 314 307 276 302 61 327 301 277 274 299 305 301 300 304 308 290 283 278 271 270 268 266 256 252 245 234
342 333 324 327 328 325 328 324 339 9 5 9 1 8 14 11 9 345 343 31 66 119 170 251 225 226 334 329 328 283 265 47 265 286 343 333 342 347 355 56 1 47 59 334 297 344 110 71 70 333 263 246 271 182 195 227 207 270 336 332 288 281 288 278 269 285 338 315 250 266 287 297 299 298 299 300 309 305 288 285 286 285 283 272 254 242 239 230
332 333 328 328 330 327 325 332 352 355 0 56 354 61 71 225 58 26 329 324 263 105 224 277 130 124 155 249 298 1 16 323 133 343 5 309 157 38 336 22 26 15 292 221 201 301 66 62 335 239 240 245 267 270 341 350 6 288 310 337 314 307 286 272 296 355 347 31 285 281 301 306 294 299 300 304 314 298 308 312 299 296 302 291 282 278 276 260
341 332 332 333 329 327 323 342 342 343 317 142 70 98 118 167 153 253 112 48 341 344 44 3 51 9 315 232 248 126 125 15 343 341 342 18 326 49 304 72 67 23 334 353 19 15 45 55 290 267 276 325 293 286 296 269 320 3 2 303 329 292 246 286 310 21 8 355 288 317 325 305 294 300 304 302 303 297 311 269 271 279 359 33 40 63 81 69
339 330 330 333 332 322 337 334 337 324 20 47 63 75 131 260 346 294 143 138 65 302 38 1 17 13 341 310 325 61 55 41 309 323 343 12 346 65 345 31 360 328 23 26 58 11 22 310 301 328 24 354 332 13 7 9 53 1 342 360 313 291 5 324 230 18 328 213 291 320 310 295 290 291 287 308 358 315 313 324 309 272 61 97 79 73 75 69
315 316 324 325 322 312 348 324 300 6 32 110 93 140 257 356 348 26 125 106 180 327 37 260 118 21 12 19 345 47 72 304 52 321 338 27 25 292 57 29 357 39 353 13 70 94 136 256 286 3 333 31 340 357 37 32 339 326 279 252 299 322 305 192 307 327 281 304 147 331 334 317 311 347 336 326 346 14 352 356 359 351 4 31 47 50 72 89
300 310 324 322 301 349 332 333 33 108 156 56 84 263 333 330 263 252 99 1 21 348 208 10 95 27 302 309 336 47 278 332 238 249 312 57 340 31 4 239 76 346 346 336 63 69 353 268 340 12 358 29 22 352 14 34 346 331 279 213 248 266 310 313 320 344 351 349 39 38 345 307 278 318 308 313 349 353 343 14 355 1 10 34 50 45 38 54
322 324 326 330 331 347 307 31 243 202 73 122 210 301 305 318 314 207 97 89 31 274 9 353 149 336 160 327 17 172 98 43 241 262 78 314 163 100 3 10 55 355 336 6 50 148 191 323 56 316 358 360 29 45 309 72 351 7 301 190 281 315 311 321 339 13 341 355 288 80 129 280 326 333 306 326 342 340 360 4 350 27 25 32 28 29 45 57
322 312 318 317 311 332 25 225 229 77 13 306 283 307 301 307 309 57 65 5 33 357 22 264 59 274 71 320 329 96 44 303 320 358 19 356 16 280 75 326 8 351 205 247 44 322 26 335 7 21 34 32 25 13 322 52 17 312 249 21 319 329 315 316 347 105 238 256 285 107 150 222 310 302 271 322 356 344 353 357 20 44 79 66 331 344 106 103
299 295 284 265 267 136 199 166 37 87 182 289 304 295 305 302 296 48 78 64 356 341 19 321 72 313 57 310 14 81 171 286 35 346 69 310 33 352 81 21 38 317 312 70 35 272 56 342 27 5 31 37 24 265 283 85 335 257 289 5 308 297 290 300 267 246 242 29 307 343 8 360 267 271 298 343 8 345 336 319 319 337 137 162 187 196 190 185
251 257 262 281 293 256 65 129 121 54 299 286 318 308 308 317 72 105 129 95 266 50 197 35 260 17 338 357 40 27 335 359 98 275 330 9 12 197 30 354 88 8 334 79 24 298 344 99 245 97 74 354 264 267 264 137 348 277 284 300 275 288 221 198 177 21 334 55 291 289 285 359 293 300 315 352 63 339 284 288 285 279 237 209 182 215 222 225
195 175 198 282 299 20 354 53 59 181 304 337 317 326 318 48 43 37 19 61 308 324 11 277 58 301 18 16 323 4 21 343 4 315 29 85 341 24 91 127 75 51 19 2 94 224 272 275 186 80 120 223 281 278 229 225 227 286 353 349 326 24 44 23 85 67 46 16 256 235 287 111 304 280 267 321 295 244 277 298 289 299 298 277 263 237 231 224
125 122 325 30 83 207 22 33 329 324 305 305 331 12 68 37 92 105 66 251 42 294 360 18 327 6 19 31 354 336 13 344 347 38 355 3 13 38 6 18 18 40 37 359 3 351 358 348 48 288 162 320 101 324 348 8 110 27 14 353 342 351 7 26 345 43 62 296 262 257 289 199 254 294 292 264 291 265 228 261 272 286 288 277 253 245 245 243
90 73 63 68 114 18 72 268 271 257 285 341 31 61 68 45 13 61 165 323 74 321 41 304 315 7 340 317 53 347 343 328 9 33 38 26 38 31 10 51 340 6 5 16 334 351 7 4 292 305 240 62 324 13 313 13 11 21 14 23 48 317 22 339 10 6 334 255 276 309 11 333 236 219 260 296 284 291 280 226 242 247 268 274 276 257 234 233
99 95 69 53 78 42 124 211 196 242 312 8 65 59 57 93 58 312 343 340 116 18 297 147 267 344 303 40 0 333 294 42 322 25 65 18 82 45 48 58 345 101 323 322 347 7 288 292 334 307 32 294 81 29 339 1 339 1 33 50 61 10 20 304 279 242 296 285 285 294 282 222 274 295 256 256 301 301 296 250 231 233 255 262 258 268 297 289
98 75 68 56 88 136 199 163 207 132 85 56 75 37 65 57 59 351 359 315 280 353 326 17 314 339 41 71 330 357 8 291 37 340 42 349 45 27 340 10 34 2 74 308 48 350 24 348 310 28 350 14 60 124 122 221 291 272 214 137 176 127 177 283 275 320 280 272 298 308 350 225 338 273 276 291 291 306 292 272 274 261 256 263 274 348 315 314
64 84 112 81 48 45 153 191 160 177 79 67 60 74 83 125 149 325 315 314 312 326 289 321 333 38 344 25 314 360 103 312 18 41 29 53 359 48 360 344 341 57 274 78 308 69 307 240 256 248 242 79 295 242 136 343 341 254 177 93 60 252 144 190 216 228 279 302 317 321 254 243 281 281 293 287 307 312 313 311 324 312 308 318 352 332 239 253
25 36 76 33 32 281 162 156 143 114 98 66 78 48 70 153 240 82 326 201 288 13 310 343 50 32 334 338 313 23 310 48 319 60 356 75 26 52 319 294 356 12 23 46 257 7 15 305 268 319 75 174 210 156 264 171 36 289 43 335 241 185 155 270 325 253 319 9 261 233 302 306 307 309 300 326 337 310 320 312 308 304 309 328 311 237 241 244
74 17 36 328 360 319 166 147 131 70 76 87 84 69 183 325 190 199 316 44 274 292 347 72 335 51 348 335 324 344 314 31 336 65 351 28 2 17 346 308 207 6 85 121 320 188 124 276 300 74 320 296 202 173 238 251 182 49 344 251 279 131 134 136 233 324 327 252 277 310 276 298 47 296 311 329 322 314 324 320 310 306 310 312 274 249 251 253
85 58 117 44 330 314 173 158 88 43 73 74 66 116 61 87 210 181 234 5 19 326 61 74 292 88 333 60 333 338 318 79 325 34 342 14 219 69 73 329 291 101 312 324 138 289 96 326 298 272 252 264 333 313 346 269 188 199 226 249 30 317 347 307 82 330 333 304 282 288 281 281 200 260 314 298 311 309 316 312 311 312 316 317 300 266 266 266
68 80 21 331 322 353 45 142 72 55 69 68 51 84 333 146 254 181 212 166 180 123 74 340 148 335 107 31 269 314 342 33 323 12 60 350 52 89 105 172 286 344 330 60 287 292 6 251 298 300 15 306 345 60 315 294 322 339 341 330 252 121 220 290 203 198 137 263 358 281 300 281 229 232 220 283 294 304 303 306 301 301 308 313 313 292 274 269
48 38 19 303 342 351 7 78 59 43 58 78 150 74 177 92 249 259 166 188 278 87 359 24 337 343 6 286 79 0 306 9 358 298 86 298 321 23 97 358 247 313 347 329 217 346 296 127 262 276 288 2 356 325 281 289 310 326 28 317 321 248 218 161 304 162 226 228 225 272 298 284 267 204 294 294 298 301 303 303 314 321 319 316 313 301 278 264
62 100 254 317 341 336 30 42 40 32 76 68 77 125 29 125 316 293 218 185 307 279 144 140 91 88 278 6 348 348 322 337 326 16 118 316 69 335 203 195 116 312 334 33 50 320 345 353 228 309 343 335 265 222 218 207 184 197 192 247 222 276 311 330 285 355 263 143 243 282 267 281 282 298 297 297 297 300 306 320 320 316 313 313 311 304 291 279
78 52 307 328 337 38 70 60 5 52 86 59 75 139 91 143 49 304 3 313 63 263 2 97 43 106 19 329 209 317 350 331 307 45 268 90 312 132 239 136 187 179 65 253 242 243 148 202 132 291 233 262 268 281 187 201 193 206 155 260 192 196 121 177 275 279 326 238 180 236 271 273 281 299 296 299 310 321 328 332 330 327 321 322 327 333 328 299
50 111 258 332 332 75 77 57 357 38 67 177 271 25 15 53 114 244 61 332 12 100 6 58 201 74 207 141 316 330 155 257 54 277 247 246 257 206 188 188 237 320 158 300 13 278 68 102 319 260 274 271 273 295 157 68 187 321 280 230 69 267 197 200 227 227 252 284 290 269 217 271 293 307 347 1 6 1 357 357 359 2 8 7 7 5 359 356
123 76 349 339 36 88 76 106 87 60 85 331 63 112 339 136 64 0 23 325 104 353 98 295 323 134 245 147 149 299 262 48 236 78 334 234 271 127 250 272 246 213 149 243 138 297 21 279 109 318 342 328 328 16 152 190 83 241 272 258 211 257 190 235 212 114 237 255 253 256 264 273 281 347 22 13 5 360 356 356 3 3 3 3 3 2 359 359
97 344 41 332 8 50 97 174 129 137 160 119 98 44 4 14 168 183 164 324 331 177 108 299 201 210 278 211 216 224 285 151 299 296 105 240 256 89 285 211 219 200 192 297 228 315 165 244 95 316 320 331 328 328 325 325 322 300 274 287 283 188 233 357 286 288 226 263 257 216 258 259 292 20 10 8 1 354 352 350 356 360 0 359 358 358 358 356
27 92 317 9 16 32 58 68 100 118 119 113 51 338 83 46 326 262 153 275 185 247 194 234 2 77 302 34 6 360 327 316 161 285 26 299 305 296 216 211 207 206 166 169 214 77 229 285 185 173 168 213 246 263 270 70 311 305 291 300 295 303 170 220 229 265 248 263 268 260 268 286 349 7 10 351 359 351 346 346 350 352 353 352 350 348 348 348
126 71 58 54 339 48 52 22 41 51 103 149 87 211 18 212 248 320 185 354 224 166 339 75 5 46 334 41 360 335 287 329 332 13 268 271 259 261 250 178 231 237 182 93 185 97 45 316 242 219 222 229 243 261 271 295 266 276 289 284 289 299 296 227 247 262 265 305 283 280 294 307 23 1 357 349 349 342 341 341 334 339 344 340 337 337 341 342
72 237 102 203 119 219 32 8 44 75 24 72 125 120 157 26 20 127 317 256 24 13 67 7 40 46 20 343 2 357 331 325 348 292 325 262 331 322 341 130 169 184 142 6 148 143 136 247 282 153 247 244 260 263 275 282 267 267 273 280 288 298 308 296 280 271 288 259 295 348 8 21 9 356 343 347 335 335 325 327 323 309 320 338 343 343 340 337
115 140 98 3 80 250 151 172 88 91 68 91 106 77 123 107 37 227 120 327 22 0 33 359 348 352 341 328 105 281 327 21 324 293 40 302 23 325 326 329 163 98 94 20 253 205 78 253 259 220 272 275 267 259 261 260 277 298 283 283 297 306 295 291 291 329 344 18 15 359 5 13 2 348 342 328 324 319 317 320 326 337 336 336 337 340 340 336
177 112 72 19 86 115 181 33 96 65 67 26 92 311 149 151 347 345 23 45 360 342 7 67 317 326 314 307 191 43 264 197 224 285 256 38 311 169 245 211 264 345 87 236 138 291 121 279 352 330 332 299 295 288 256 271 311 297 300 325 345 349 357 3 29 9 9 21 5 358 1 349 348 341 332 326 319 320 327 333 332 328 331 332 339 340 338 335
159 153 151 117 66 332 17 23 56 90 55 352 69 336 48 18 45 87 32 352 100 317 18 332 291 316 328 20 116 252 233 207 228 235 252 214 249 236 169 292 77 301 347 342 9 322 51 267 19 31 345 301 307 323 324 321 301 299 358 7 4 13 17 28 39 359 38 5 350 360 360 345 334 334 325 319 318 320 325 327 327 329 325 331 339 339 334 330
74 23 82 105 84 326 69 333 14 59 26 318 88 337 66 359 252 21 37 85 89 121 187 306 282 43 311 18 312 267 251 231 251 255 244 245 265 279 262 273 23 20 325 316 228 259 188 17 347 352 326 287 298 326 332 325 324 23 15 2 0 15 11 21 116 64 66 19 15 0 316 312 305 309 304 302 311 319 322 327 324 323 323 333 337 331 325 319